[[{"header":{"parameterUnit":"m.s-1","parameterCategory":1,"la1":30.2991,"la2":30.254,"lo1":-89.0895,"lo2":-89.0444,"dy":0.0017,"dx":0.0017,"nx":28,"ny":28,"refTime":"2024-10-20T21:00:00:Z","depth":0,"parameterNumber":2,"parameterNumberName":"U-component_of_WINDS"},"data":[0,0,0,0,0,0,0,0,0,0,0,0,0,0,0,0,0,0,0,0,0,0,0,0,0,0,0,0,0,0,0,0,0,0,0,0,0,0,0,0,0,0,0,0,0,0,0,0,0,0,0,0,0,0,0,0,0,0,-1.8709,-1.871,0,-1.872,-1.872,-1.872,-1.8663,-1.8662,-1.866,-1.8658,-1.8672,-1.8674,-1.8676,0,0,0,0,0,0,0,0,0,0,0,0,0,-1.8643,-1.8644,-1.8709,-1.871,-1.871,-1.872,-1.872,-1.8721,-1.8664,-1.8662,-1.866,-1.8658,-1.8672,-1.8674,-1.8676,0,0,0,0,0,0,0,0,0,0,0,0,0,-1.8665,-1.8645,-1.8709,-1.8682,-1.868,-1.872,-1.872,-1.8721,-1.8664,-1.8662,-1.8659,-1.8657,-1.8671,-1.8674,-1.8677,-1.8744,0,0,-1.8685,-1.8687,0,0,0,0,0,0,0,0,-1.8664,-1.8667,-1.8686,-1.8684,-1.8682,-1.8688,-1.8702,-1.8729,-1.8665,-1.867,-1.8658,-1.8656,-1.868,-1.8682,-1.8689,-1.8745,-1.8745,-1.8686,-1.8687,-1.8689,-1.8689,0,0,0,0,0,0,0,-1.8662,-1.8666,-1.8714,-1.8687,-1.8684,-1.8671,-1.8671,-1.8707,-1.8689,-1.867,-1.8665,-1.8667,-1.8678,-1.8687,-1.8689,-1.8745,-1.8686,-1.8688,-1.869,-1.8691,-1.8859,-1.8861,0,0,0,0,0,0,-1.8664,-1.8666,-1.8713,-1.8714,-1.8666,-1.8674,-1.8675,-1.8688,-1.8688,-1.8686,-1.8669,-1.8665,-1.8683,-1.8686,-1.869,-1.877,-1.8689,-1.8691,-1.8693,-1.8856,-1.8859,-1.8862,0,0,0,0,0,0,-1.8663,-1.8669,-1.8713,-1.8689,-1.8693,-1.8678,-1.8694,-1.869,-1.8698,-1.8688,-1.8685,-1.8681,-1.8681,-1.8685,-1.8731,-1.8769,-1.8693,-1.8695,-1.8853,-1.8857,-1.8861,-1.893,0,0,0,0,0,0,-1.8661,-1.8668,-1.8693,-1.869,-1.8695,-1.8753,-1.8696,-1.8692,-1.8703,-1.8697,-1.8698,-1.8696,-1.868,-1.8727,-1.8734,-1.8772,-1.8697,-1.8849,-1.8855,-1.886,-1.8924,-1.8936,-1.8946,0,0,0,0,0,-1.8659,-1.8712,-1.8694,-1.87,-1.8725,-1.8756,-1.8759,-1.8737,-1.8706,-1.8732,-1.8725,-1.8696,-1.8764,-1.8732,-1.874,-1.8779,-1.8847,-1.8853,-1.8859,-1.8919,-1.8933,-1.8945,0,0,0,0,0,0,-1.872,-1.8711,-1.8691,-1.8745,-1.8752,-1.8746,-1.8777,-1.8753,-1.8769,-1.8763,-1.8737,-1.8738,-1.8788,-1.8788,-1.8753,-1.8845,-1.88,-1.8808,-1.8843,-1.8857,-1.8867,-1.8867,-1.87,0,0,0,0,0,-1.874,-1.8765,-1.8756,-1.8804,-1.8808,-1.8792,-1.8805,-1.8788,-1.8794,-1.8797,-1.8794,-1.8802,-1.8825,-1.8841,-1.8861,-1.8924,-1.8924,-1.8954,-1.8965,-1.8974,-1.8982,-1.9016,-1.903,-1.8883,-1.8883,-1.8883,0,0,-1.8781,-1.8779,-1.8796,-1.8816,-1.8819,-1.8847,-1.8795,-1.8826,-1.8846,-1.8802,-1.8845,-1.8843,-1.885,-1.8905,-1.8929,-1.8907,-1.9023,-1.8982,-1.8989,-1.8992,-1.9024,-1.9038,-1.9051,-1.8887,-1.8886,-1.8885,0,0,-1.887,-1.8871,-1.8912,-1.8916,-1.8921,-1.8911,-1.8921,-1.8919,-1.8916,-1.8959,-1.8927,-1.8952,-1.8991,-1.8999,-1.9007,-1.9102,-1.9076,-1.9109,-1.9166,-1.92,-1.9212,-1.9222,-1.9257,-1.927,-1.9117,-1.9117,-1.9117,0,-1.8921,-1.896,-1.8936,-1.897,-1.898,-1.8941,-1.8983,-1.8989,-1.9001,-1.901,-1.8984,-1.9035,-1.9037,-1.9093,-1.9117,-1.9125,-1.9137,-1.9109,-1.9212,-1.9222,-1.9231,-1.9265,-1.9278,-1.9121,-1.912,-1.912,-1.9119,0,-1.9023,-1.9051,-1.9084,-1.9096,-1.911,-1.9148,-1.9131,-1.9149,-1.9131,-1.9124,-1.9169,-1.917,-1.9192,-1.9204,-1.9187,-1.9259,-1.9245,-1.9216,-1.9171,-1.925,-1.9281,-1.9293,-1.9127,-1.9125,-1.9124,-1.9123,0,0,-1.9151,-1.915,-1.9163,-1.9169,-1.9173,-1.9194,-1.9232,-1.9251,-1.9268,-1.9278,-1.931,-1.9345,-1.9319,-1.9329,-1.9313,-1.9344,-1.942,-1.9311,-1.9311,-1.9333,-1.9502,-1.9524,-1.9539,-1.9403,-1.9406,-1.9407,-1.9502,0,-1.9239,-1.9301,-1.9281,-1.9344,-1.9371,-1.9335,-1.9367,-1.9374,-1.9369,-1.9392,-1.9386,-1.9412,-1.9375,-1.9381,-1.9409,-1.9405,-1.9454,-1.9398,-1.9434,-1.9436,-1.9434,-1.9555,-1.9578,-1.9667,-1.9513,-1.9515,-1.9517,0,-1.9349,-1.9364,-1.943,-1.9431,-1.9442,-1.9471,-1.9489,-1.9511,-1.9519,-1.9513,-1.9525,-1.9504,-1.9542,-1.9496,-1.955,-1.9512,-1.9526,-1.9526,-1.9529,-1.9532,-1.9481,-1.9562,-1.9694,-1.9708,-1.9535,-1.9534,-1.9533,0,-1.9437,-1.9474,-1.9518,-1.9524,-1.9526,-1.9548,-1.955,-1.9556,-1.957,-1.9586,-1.9595,-1.9616,-1.9627,-1.9645,-1.963,-1.9598,-1.9687,-1.9639,-1.9684,-1.9685,-1.9705,-1.9704,-1.9842,-1.9713,-1.9712,-1.9712,-1.9712,0,-1.9538,-1.958,-1.9558,-1.9585,-1.9632,-1.961,-1.9658,-1.9656,-1.9661,-1.9689,-1.9659,-1.9686,-1.9665,-1.9691,-1.968,-1.9727,-1.9732,-1.973,-1.9726,-1.9733,-1.9733,-1.9742,-1.9736,-1.9716,-1.9715,-1.9714,-1.9714,0,-1.9644,-1.963,-1.9677,-1.9675,-1.9676,-1.9711,-1.971,-1.9737,-1.973,-1.9766,-1.9773,-1.9762,-1.9791,-1.9778,-1.9809,-1.9801,-1.9862,-1.985,-1.986,-1.9857,-1.9903,-1.9899,-2.0052,-2.0072,-1.9929,-1.993,-1.9931,0,-1.9709,-1.9741,-1.9743,-1.9759,-1.9764,-1.979,-1.9804,-1.9784,-1.9801,-1.9813,-1.9839,-1.9865,-1.9885,-1.9933,-1.9929,-1.9953,-1.9942,-1.9994,-1.9946,-1.9952,-1.9945,-1.9943,-1.9947,-2.0004,-2.0006,-2.0007,-2.0008,0,-1.9828,-1.982,-1.9841,-1.9861,-1.9878,-1.9893,-1.9905,-1.9921,-1.9901,-1.9922,-1.9951,-1.9966,-1.9998,-2.0025,-2.0047,-2.005,-2.0027,-2.0024,-2.0036,-2.0043,-2.0047,-2.0047,-1.9887,-2.002,-2.0019,-2.0018,-2.0018,-2.0017,-1.9916,-1.9943,-1.9949,-1.9974,-1.9982,-1.9994,-2.0019,-2.0016,-2.0039,-2.0063,-2.005,-2.0085,-2.0094,-2.012,-2.0128,-2.0156,-2.0135,-2.0152,-2.0157,-2.0161,-2.0168,-2.0042,-2.0159,-2.0159,-2.0159,-2.0158,-2.0158,0,-2.0033,-2.0036,-2.0059,-2.0078,-2.0098,-2.0074,-2.0087,-2.0106,-2.0136,-2.0146,-2.0167,-2.0202,-2.0229,-2.0227,-2.0252,-2.0275,-2.0266,-2.0283,-2.0281,-2.0283,-2.0184,-2.0172,-2.029,-2.029,-2.029,-2.029,-2.029,-2.029,-2.0097,-2.0142,-2.0136,-2.0185,-2.0187,-2.022,-2.023,-2.0242,-2.025,-2.029,-2.0312,-2.0311,-2.0317,-2.0343,-2.0368,-2.0367,-2.0378,-2.04,-2.0395,-2.0303,-2.029,-2.0277,-2.0266,-2.0402,-2.0402,-2.0492,-2.0493,-2.0493]},{"header":{"parameterUnit":"m.s-1","parameterCategory":1,"la1":30.2991,"la2":30.254,"lo1":-89.0895,"lo2":-89.0444,"dy":0.0017,"dx":0.0017,"nx":28,"ny":28,"refTime":"2024-10-20T21:00:00:Z","depth":0,"parameterNumber":3,"parameterNumberName":"V-component_of_WINDS"},"data":[0,0,0,0,0,0,0,0,0,0,0,0,0,0,0,0,0,0,0,0,0,0,0,0,0,0,0,0,0,0,0,0,0,0,0,0,0,0,0,0,0,0,0,0,0,0,0,0,0,0,0,0,0,0,0,0,0,0,-0.0375,-0.0375,0,-0.0395,-0.0395,-0.0395,-0.0308,-0.0305,-0.0303,-0.03,-0.0325,-0.0328,-0.0331,0,0,0,0,0,0,0,0,0,0,0,0,0,-0.0265,-0.0268,-0.0375,-0.0375,-0.0376,-0.0395,-0.0395,-0.0395,-0.0308,-0.0305,-0.0302,-0.0299,-0.0324,-0.0327,-0.0331,0,0,0,0,0,0,0,0,0,0,0,0,0,-0.0302,-0.0269,-0.0375,-0.0334,-0.0331,-0.0395,-0.0395,-0.0396,-0.0309,-0.0305,-0.0301,-0.0298,-0.0322,-0.0327,-0.0331,-0.0437,0,0,-0.0345,-0.0347,0,0,0,0,0,0,0,0,-0.03,-0.0306,-0.034,-0.0337,-0.0334,-0.0345,-0.0365,-0.0409,-0.031,-0.0318,-0.03,-0.0296,-0.0335,-0.0338,-0.035,-0.0438,-0.0439,-0.0346,-0.0348,-0.035,-0.0352,0,0,0,0,0,0,0,-0.0298,-0.0305,-0.0383,-0.0341,-0.0337,-0.0316,-0.0317,-0.0373,-0.0348,-0.0317,-0.031,-0.0314,-0.0332,-0.0346,-0.035,-0.0439,-0.0346,-0.035,-0.0352,-0.0354,-0.0615,-0.0619,0,0,0,0,0,0,-0.03,-0.0303,-0.0382,-0.0384,-0.0307,-0.0321,-0.0322,-0.0345,-0.0347,-0.0343,-0.0317,-0.0309,-0.034,-0.0345,-0.0351,-0.0475,-0.035,-0.0355,-0.0357,-0.0611,-0.0616,-0.0621,0,0,0,0,0,0,-0.0298,-0.0308,-0.0382,-0.0342,-0.035,-0.0327,-0.0354,-0.0348,-0.0361,-0.0347,-0.0342,-0.0336,-0.0337,-0.0344,-0.0416,-0.0475,-0.0357,-0.0361,-0.0606,-0.0612,-0.0618,-0.0725,0,0,0,0,0,0,-0.0295,-0.0308,-0.0347,-0.0343,-0.0352,-0.0446,-0.0357,-0.0351,-0.0369,-0.036,-0.0363,-0.036,-0.0335,-0.041,-0.0421,-0.0479,-0.0364,-0.0601,-0.0609,-0.0616,-0.0716,-0.0734,-0.075,0,0,0,0,0,-0.0292,-0.0376,-0.0349,-0.0359,-0.04,-0.0449,-0.0454,-0.0422,-0.0374,-0.0414,-0.0405,-0.036,-0.0466,-0.0418,-0.0429,-0.049,-0.0597,-0.0607,-0.0616,-0.0709,-0.0731,-0.0749,0,0,0,0,0,0,-0.0389,-0.0375,-0.0345,-0.0431,-0.0442,-0.0434,-0.0483,-0.0447,-0.0472,-0.0463,-0.0423,-0.0425,-0.0504,-0.0503,-0.045,-0.0593,-0.0523,-0.0536,-0.059,-0.0611,-0.0627,-0.0627,-0.0368,0,0,0,0,0,-0.042,-0.046,-0.0446,-0.0523,-0.053,-0.0506,-0.0526,-0.0501,-0.0511,-0.0516,-0.0511,-0.0524,-0.056,-0.0585,-0.0617,-0.0715,-0.0716,-0.0762,-0.0779,-0.0793,-0.0805,-0.0858,-0.0879,-0.0652,-0.0651,-0.0651,0,0,-0.0485,-0.0483,-0.0511,-0.0543,-0.0548,-0.0592,-0.0511,-0.056,-0.0593,-0.0523,-0.0591,-0.0588,-0.06,-0.0685,-0.0723,-0.0688,-0.0867,-0.0805,-0.0816,-0.082,-0.087,-0.0892,-0.0911,-0.0658,-0.0657,-0.0656,0,0,-0.0627,-0.0629,-0.0694,-0.0701,-0.0709,-0.0693,-0.0708,-0.0707,-0.0702,-0.0769,-0.0718,-0.0756,-0.0819,-0.083,-0.0843,-0.0989,-0.095,-0.1001,-0.1089,-0.1141,-0.1159,-0.1175,-0.1229,-0.1249,-0.1012,-0.1012,-0.1013,0,-0.0708,-0.0771,-0.0732,-0.0785,-0.0802,-0.0739,-0.0806,-0.0815,-0.0835,-0.0848,-0.0808,-0.0886,-0.0889,-0.0977,-0.1013,-0.1025,-0.1043,-0.1001,-0.116,-0.1175,-0.1189,-0.1241,-0.1261,-0.1019,-0.1018,-0.1017,-0.1017,0,-0.0871,-0.0915,-0.0966,-0.0986,-0.1008,-0.1068,-0.104,-0.1067,-0.1039,-0.1027,-0.1096,-0.1098,-0.113,-0.1148,-0.1122,-0.1233,-0.1211,-0.1166,-0.1096,-0.1218,-0.1266,-0.1285,-0.1028,-0.1025,-0.1023,-0.1022,0,0,-0.1076,-0.1073,-0.1093,-0.1102,-0.1106,-0.1141,-0.1198,-0.1228,-0.1253,-0.1268,-0.1317,-0.1371,-0.1329,-0.1345,-0.1319,-0.1364,-0.1482,-0.1314,-0.1313,-0.1347,-0.1607,-0.1643,-0.1666,-0.1455,-0.1459,-0.1461,-0.1607,0,-0.1217,-0.1314,-0.1281,-0.138,-0.1422,-0.1362,-0.1412,-0.1422,-0.1412,-0.1446,-0.1435,-0.1476,-0.1416,-0.1426,-0.1468,-0.1459,-0.1534,-0.1448,-0.1502,-0.1505,-0.1504,-0.1691,-0.1728,-0.1866,-0.1625,-0.1628,-0.163,0,-0.1395,-0.1416,-0.152,-0.1518,-0.1534,-0.158,-0.1605,-0.1638,-0.1648,-0.1637,-0.1655,-0.1619,-0.1677,-0.1605,-0.1685,-0.1626,-0.1646,-0.1645,-0.165,-0.1656,-0.1577,-0.1704,-0.1908,-0.193,-0.1659,-0.1656,-0.1654,0,-0.1537,-0.1592,-0.1661,-0.167,-0.1669,-0.1703,-0.1705,-0.171,-0.1731,-0.1753,-0.1766,-0.1796,-0.1812,-0.1836,-0.181,-0.176,-0.1895,-0.182,-0.189,-0.1891,-0.1923,-0.1922,-0.2136,-0.1932,-0.1932,-0.1931,-0.1931,0,-0.17,-0.1766,-0.1725,-0.1768,-0.1841,-0.1802,-0.1876,-0.1871,-0.1876,-0.1918,-0.1868,-0.1909,-0.1871,-0.1908,-0.1888,-0.1958,-0.1966,-0.196,-0.1955,-0.1966,-0.1968,-0.1981,-0.1972,-0.1937,-0.1935,-0.1934,-0.1933,0,-0.1872,-0.1848,-0.1919,-0.1912,-0.1912,-0.1966,-0.1961,-0.2001,-0.1987,-0.2041,-0.2051,-0.203,-0.2071,-0.2047,-0.209,-0.2076,-0.2168,-0.2148,-0.2165,-0.2161,-0.2233,-0.2227,-0.2465,-0.2495,-0.2269,-0.2272,-0.2273,0,-0.1979,-0.2028,-0.2026,-0.205,-0.2055,-0.2094,-0.2114,-0.2078,-0.2102,-0.2117,-0.2156,-0.2192,-0.222,-0.229,-0.2279,-0.2312,-0.2294,-0.2375,-0.2299,-0.2309,-0.2298,-0.2297,-0.2302,-0.2391,-0.2394,-0.2396,-0.2398,0,-0.2171,-0.2156,-0.2187,-0.2215,-0.224,-0.226,-0.2276,-0.2299,-0.2262,-0.2292,-0.2333,-0.2355,-0.2398,-0.2436,-0.2464,-0.2466,-0.2428,-0.2421,-0.244,-0.2454,-0.2462,-0.2461,-0.221,-0.2417,-0.2415,-0.2414,-0.2413,-0.2412,-0.2316,-0.2357,-0.2363,-0.2399,-0.2407,-0.2423,-0.246,-0.2451,-0.2484,-0.2516,-0.2492,-0.2542,-0.2551,-0.2584,-0.2592,-0.2631,-0.2599,-0.2625,-0.2632,-0.2639,-0.265,-0.2454,-0.2636,-0.2635,-0.2634,-0.2634,-0.2634,0,-0.2508,-0.2508,-0.2541,-0.2565,-0.2594,-0.2552,-0.2567,-0.2595,-0.2639,-0.265,-0.2678,-0.2727,-0.2763,-0.2755,-0.2788,-0.2821,-0.2805,-0.2832,-0.283,-0.2832,-0.2676,-0.2658,-0.2845,-0.2845,-0.2845,-0.2845,-0.2845,-0.2845,-0.2611,-0.268,-0.2666,-0.2739,-0.2738,-0.2786,-0.2799,-0.2814,-0.2822,-0.2878,-0.2908,-0.2901,-0.2905,-0.2938,-0.2971,-0.2967,-0.2983,-0.3018,-0.3008,-0.2864,-0.2843,-0.2823,-0.2806,-0.3021,-0.3021,-0.3161,-0.3162,-0.3163]}]]